owner,sensor,date,latitude,longitude,air_pressure(mBar),qcFlag 
TABS,ioos:station:wmo:42047:1,2014-04-01T00:00:00Z,27.8966,-93.5973,1015.44,11111222 
TABS,ioos:station:wmo:42047:1,2014-04-01T00:30:00Z,27.8966,-93.5973,1015.46,11111222 
TABS,ioos:station:wmo:42047:1,2014-04-01T01:00:00Z,27.8966,-93.5973,1015.61,11111222 
TABS,ioos:station:wmo:42047:1,2014-04-01T01:30:00Z,27.8966,-93.5973,1015.82,11111222 
TABS,ioos:station:wmo:42047:1,2014-04-01T02:00:00Z,27.8966,-93.5973,1016.14,11111222 
TABS,ioos:station:wmo:42047:1,2014-04-01T02:30:00Z,27.8966,-93.5973,1016.32,11111222 
TABS,ioos:station:wmo:42047:1,2014-04-01T03:00:00Z,27.8966,-93.5973,1016.55,11111222 
TABS,ioos:station:wmo:42047:1,2014-04-01T03:30:00Z,27.8966,-93.5973,1016.29,11111222 
TABS,ioos:station:wmo:42047:1,2014-04-01T04:00:00Z,27.8966,-93.5973,1016.4,11111222 
TABS,ioos:station:wmo:42047:1,2014-04-01T04:30:00Z,27.8966,-93.5973,1016.59,11111222 
TABS,ioos:station:wmo:42047:1,2014-04-01T05:00:00Z,27.8966,-93.5973,1016.47,11111222 
TABS,ioos:station:wmo:42047:1,2014-04-01T05:30:00Z,27.8966,-93.5973,1016.31,11111222 
TABS,ioos:station:wmo:42047:1,2014-04-01T06:00:00Z,27.8966,-93.5973,1016.09,11111222 
TABS,ioos:station:wmo:42047:1,2014-04-01T06:30:00Z,27.8966,-93.5973,1016.16,11111222 
TABS,ioos:station:wmo:42047:1,2014-04-01T07:00:00Z,27.8966,-93.5973,1016.44,11111222 
TABS,ioos:station:wmo:42047:1,2014-04-01T07:30:00Z,27.8966,-93.5973,1016.34,11111222 
TABS,ioos:station:wmo:42047:1,2014-04-01T08:00:00Z,27.8966,-93.5973,1015.96,11111222 
TABS,ioos:station:wmo:42047:1,2014-04-01T08:30:00Z,27.8966,-93.5973,1015.6,11111222 
TABS,ioos:station:wmo:42047:1,2014-04-01T09:00:00Z,27.8966,-93.5973,1015.5,11111222 
TABS,ioos:station:wmo:42047:1,2014-04-01T09:30:00Z,27.8966,-93.5973,1015.34,11111222 
TABS,ioos:station:wmo:42047:1,2014-04-01T10:00:00Z,27.8966,-93.5973,1015.35,11111222 
TABS,ioos:station:wmo:42047:1,2014-04-01T10:30:00Z,27.8966,-93.5973,1015.66,11111222 
TABS,ioos:station:wmo:42047:1,2014-04-01T11:00:00Z,27.8966,-93.5973,1015.78,11111222 
TABS,ioos:station:wmo:42047:1,2014-04-01T11:30:00Z,27.8966,-93.5973,1016.16,11111222 
TABS,ioos:station:wmo:42047:1,2014-04-01T12:00:00Z,27.8966,-93.5973,1016.41,11111222 
TABS,ioos:station:wmo:42047:1,2014-04-01T12:30:00Z,27.8966,-93.5973,1016.61,11111222 
TABS,ioos:station:wmo:42047:1,2014-04-01T13:00:00Z,27.8966,-93.5973,1016.9,11111222 
TABS,ioos:station:wmo:42047:1,2014-04-01T13:30:00Z,27.8966,-93.5973,1017.0,11111222 
TABS,ioos:station:wmo:42047:1,2014-04-01T14:00:00Z,27.8966,-93.5973,1017.2,11111222 
TABS,ioos:station:wmo:42047:1,2014-04-01T14:30:00Z,27.8966,-93.5973,1017.3,11111222 
TABS,ioos:station:wmo:42047:1,2014-04-01T15:00:00Z,27.8966,-93.5973,1017.52,11111222 
TABS,ioos:station:wmo:42047:1,2014-04-01T15:30:00Z,27.8966,-93.5973,1017.88,11111222 
TABS,ioos:station:wmo:42047:1,2014-04-01T16:00:00Z,27.8966,-93.5973,1018.01,11111222 
TABS,ioos:station:wmo:42047:1,2014-04-01T16:30:00Z,27.8966,-93.5973,1017.9,11111222 
TABS,ioos:station:wmo:42047:1,2014-04-01T17:00:00Z,27.8966,-93.5973,1017.76,11111222 
TABS,ioos:station:wmo:42047:1,2014-04-01T17:30:00Z,27.8966,-93.5973,1017.35,11111222 
TABS,ioos:station:wmo:42047:1,2014-04-01T18:00:00Z,27.8966,-93.5973,1017.26,11111222 
TABS,ioos:station:wmo:42047:1,2014-04-01T18:30:00Z,27.8966,-93.5973,1016.91,11111222 
TABS,ioos:station:wmo:42047:1,2014-04-01T19:00:00Z,27.8966,-93.5973,1016.84,11111222 
TABS,ioos:station:wmo:42047:1,2014-04-01T19:30:00Z,27.8966,-93.5973,1016.77,11111222 
TABS,ioos:station:wmo:42047:1,2014-04-01T20:00:00Z,27.8966,-93.5973,1016.31,11111222 
TABS,ioos:station:wmo:42047:1,2014-04-01T20:30:00Z,27.8966,-93.5973,1015.97,11111222 
TABS,ioos:station:wmo:42047:1,2014-04-01T21:00:00Z,27.8966,-93.5973,1015.81,11111222 
TABS,ioos:station:wmo:42047:1,2014-04-01T21:30:00Z,27.8966,-93.5973,1015.57,11111222 
TABS,ioos:station:wmo:42047:1,2014-04-01T22:00:00Z,27.8966,-93.5973,1015.48,11111222 
TABS,ioos:station:wmo:42047:1,2014-04-01T22:30:00Z,27.8966,-93.5973,1015.34,11111222 
TABS,ioos:station:wmo:42047:1,2014-04-01T23:00:00Z,27.8966,-93.5973,1015.4,11111222 
TABS,ioos:station:wmo:42047:1,2014-04-01T23:30:00Z,27.8966,-93.5973,1015.33,11111222 
TABS,ioos:station:wmo:42047:1,2014-04-02T00:00:00Z,27.8966,-93.5973,1015.25,11111222 
TABS,ioos:station:wmo:42047:1,2014-04-02T00:30:00Z,27.8966,-93.5973,1015.43,11111222 
TABS,ioos:station:wmo:42047:1,2014-04-02T01:00:00Z,27.8966,-93.5973,1015.31,11111222 
TABS,ioos:station:wmo:42047:1,2014-04-02T01:30:00Z,27.8966,-93.5973,1015.33,11111222 
TABS,ioos:station:wmo:42047:1,2014-04-02T02:00:00Z,27.8966,-93.5973,1015.39,11111222 
TABS,ioos:station:wmo:42047:1,2014-04-02T02:30:00Z,27.8966,-93.5973,1015.57,11111222 
TABS,ioos:station:wmo:42047:1,2014-04-02T03:00:00Z,27.8966,-93.5973,1015.52,11111222 
TABS,ioos:station:wmo:42047:1,2014-04-02T03:30:00Z,27.8966,-93.5973,1015.51,11111222 
TABS,ioos:station:wmo:42047:1,2014-04-02T04:00:00Z,27.8966,-93.5973,1015.34,11111222 
TABS,ioos:station:wmo:42047:1,2014-04-02T04:30:00Z,27.8966,-93.5973,1015.18,11111222 
TABS,ioos:station:wmo:42047:1,2014-04-02T05:00:00Z,27.8966,-93.5973,1014.93,11111222 
TABS,ioos:station:wmo:42047:1,2014-04-02T05:30:00Z,27.8966,-93.5973,1014.65,11111222 
TABS,ioos:station:wmo:42047:1,2014-04-02T06:00:00Z,27.8966,-93.5973,1014.36,11111222 
TABS,ioos:station:wmo:42047:1,2014-04-02T06:30:00Z,27.8966,-93.5973,1014.19,11111222 
TABS,ioos:station:wmo:42047:1,2014-04-02T07:00:00Z,27.8966,-93.5973,1014.06,11111222 
TABS,ioos:station:wmo:42047:1,2014-04-02T07:30:00Z,27.8966,-93.5973,1014.33,11111222 
TABS,ioos:station:wmo:42047:1,2014-04-02T08:00:00Z,27.8966,-93.5973,1014.09,11111222 
TABS,ioos:station:wmo:42047:1,2014-04-02T08:30:00Z,27.8966,-93.5973,1013.76,11111222 
TABS,ioos:station:wmo:42047:1,2014-04-02T09:00:00Z,27.8966,-93.5973,1013.86,11111222 
TABS,ioos:station:wmo:42047:1,2014-04-02T09:30:00Z,27.8966,-93.5973,1013.93,11111222 
TABS,ioos:station:wmo:42047:1,2014-04-02T10:00:00Z,27.8966,-93.5973,1013.81,11111222 
TABS,ioos:station:wmo:42047:1,2014-04-02T10:30:00Z,27.8966,-93.5973,1013.87,11111222 
TABS,ioos:station:wmo:42047:1,2014-04-02T11:00:00Z,27.8966,-93.5973,1014.0,11111222 
TABS,ioos:station:wmo:42047:1,2014-04-02T11:30:00Z,27.8966,-93.5973,1014.22,11111222 
TABS,ioos:station:wmo:42047:1,2014-04-02T12:00:00Z,27.8966,-93.5973,1014.51,11111222 
TABS,ioos:station:wmo:42047:1,2014-04-02T12:30:00Z,27.8966,-93.5973,1014.57,11111222 
TABS,ioos:station:wmo:42047:1,2014-04-02T13:00:00Z,27.8966,-93.5973,1014.82,11111222 
TABS,ioos:station:wmo:42047:1,2014-04-02T13:30:00Z,27.8966,-93.5973,1015.07,11111222 
TABS,ioos:station:wmo:42047:1,2014-04-02T14:00:00Z,27.8966,-93.5973,1014.96,11111222 
TABS,ioos:station:wmo:42047:1,2014-04-02T14:30:00Z,27.8966,-93.5973,1015.27,11111222 
TABS,ioos:station:wmo:42047:1,2014-04-02T15:00:00Z,27.8966,-93.5973,1015.6,11111222 
TABS,ioos:station:wmo:42047:1,2014-04-02T15:30:00Z,27.8966,-93.5973,1015.91,11111222 
TABS,ioos:station:wmo:42047:1,2014-04-02T16:00:00Z,27.8966,-93.5973,1016.1,11111222 
TABS,ioos:station:wmo:42047:1,2014-04-02T16:30:00Z,27.8966,-93.5973,1015.79,11111222 
TABS,ioos:station:wmo:42047:1,2014-04-02T17:00:00Z,27.8966,-93.5973,1015.43,11111222 
TABS,ioos:station:wmo:42047:1,2014-04-02T17:30:00Z,27.8966,-93.5973,1015.15,11111222 
TABS,ioos:station:wmo:42047:1,2014-04-02T18:00:00Z,27.8966,-93.5973,1014.83,11111222 
TABS,ioos:station:wmo:42047:1,2014-04-02T18:30:00Z,27.8966,-93.5973,1014.4,11111222 
TABS,ioos:station:wmo:42047:1,2014-04-02T19:00:00Z,27.8966,-93.5973,1014.11,11111222 
TABS,ioos:station:wmo:42047:1,2014-04-02T19:30:00Z,27.8966,-93.5973,1013.68,11111222 
TABS,ioos:station:wmo:42047:1,2014-04-02T20:00:00Z,27.8966,-93.5973,1013.33,11111222 
TABS,ioos:station:wmo:42047:1,2014-04-02T20:30:00Z,27.8966,-93.5973,1013.02,11111222 
TABS,ioos:station:wmo:42047:1,2014-04-02T21:00:00Z,27.8966,-93.5973,1012.16,11111222 
TABS,ioos:station:wmo:42047:1,2014-04-02T21:30:00Z,27.8966,-93.5973,1012.1,11111222 
TABS,ioos:station:wmo:42047:1,2014-04-02T22:00:00Z,27.8966,-93.5973,1011.63,11111222 
TABS,ioos:station:wmo:42047:1,2014-04-02T22:30:00Z,27.8966,-93.5973,1012.03,11111222 
TABS,ioos:station:wmo:42047:1,2014-04-02T23:00:00Z,27.8966,-93.5973,1011.72,11111222 
TABS,ioos:station:wmo:42047:1,2014-04-02T23:30:00Z,27.8966,-93.5973,1011.82,11111222 
TABS,ioos:station:wmo:42047:1,2014-04-03T00:00:00Z,27.8966,-93.5973,1011.72,11111222 
TABS,ioos:station:wmo:42047:1,2014-04-03T00:30:00Z,27.8966,-93.5973,1011.53,11111222 
TABS,ioos:station:wmo:42047:1,2014-04-03T01:00:00Z,27.8966,-93.5973,1011.42,11111222 
TABS,ioos:station:wmo:42047:1,2014-04-03T01:30:00Z,27.8966,-93.5973,1011.39,11111222 
TABS,ioos:station:wmo:42047:1,2014-04-03T02:00:00Z,27.8966,-93.5973,1011.57,11111222 
TABS,ioos:station:wmo:42047:1,2014-04-03T02:30:00Z,27.8966,-93.5973,1012.15,11111222 
TABS,ioos:station:wmo:42047:1,2014-04-03T03:00:00Z,27.8966,-93.5973,1012.52,11111222 
TABS,ioos:station:wmo:42047:1,2014-04-03T03:30:00Z,27.8966,-93.5973,1012.93,11111222 
TABS,ioos:station:wmo:42047:1,2014-04-03T04:00:00Z,27.8966,-93.5973,1013.18,11111222 
TABS,ioos:station:wmo:42047:1,2014-04-03T04:30:00Z,27.8966,-93.5973,1012.96,11111222 
TABS,ioos:station:wmo:42047:1,2014-04-03T05:00:00Z,27.8966,-93.5973,1012.64,11111222 
TABS,ioos:station:wmo:42047:1,2014-04-03T05:30:00Z,27.8966,-93.5973,1012.35,11111222 
TABS,ioos:station:wmo:42047:1,2014-04-03T06:00:00Z,27.8966,-93.5973,1012.46,11111222 
TABS,ioos:station:wmo:42047:1,2014-04-03T06:30:00Z,27.8966,-93.5973,1012.38,11111222 
TABS,ioos:station:wmo:42047:1,2014-04-03T07:00:00Z,27.8966,-93.5973,1012.35,11111222 
TABS,ioos:station:wmo:42047:1,2014-04-03T07:30:00Z,27.8966,-93.5973,1012.06,11111222 
TABS,ioos:station:wmo:42047:1,2014-04-03T08:00:00Z,27.8966,-93.5973,1011.99,11111222 
TABS,ioos:station:wmo:42047:1,2014-04-03T08:30:00Z,27.8966,-93.5973,1011.89,11111222 
TABS,ioos:station:wmo:42047:1,2014-04-03T09:00:00Z,27.8966,-93.5973,1011.94,11111222 
TABS,ioos:station:wmo:42047:1,2014-04-03T09:30:00Z,27.8966,-93.5973,1011.6,11111222 
TABS,ioos:station:wmo:42047:1,2014-04-03T10:00:00Z,27.8966,-93.5973,1011.88,11111222 
TABS,ioos:station:wmo:42047:1,2014-04-03T10:30:00Z,27.8966,-93.5973,1011.77,11111222 
TABS,ioos:station:wmo:42047:1,2014-04-03T11:00:00Z,27.8966,-93.5973,1011.93,11111222 
TABS,ioos:station:wmo:42047:1,2014-04-03T11:30:00Z,27.8966,-93.5973,1012.08,11111222 
TABS,ioos:station:wmo:42047:1,2014-04-03T12:00:00Z,27.8966,-93.5973,1012.04,11111222 
TABS,ioos:station:wmo:42047:1,2014-04-03T12:30:00Z,27.8966,-93.5973,1012.21,11111222 
TABS,ioos:station:wmo:42047:1,2014-04-03T13:00:00Z,27.8966,-93.5973,1012.22,11111222 
TABS,ioos:station:wmo:42047:1,2014-04-03T13:30:00Z,27.8966,-93.5973,1012.02,11111222 
TABS,ioos:station:wmo:42047:1,2014-04-03T14:00:00Z,27.8966,-93.5973,1012.15,11111222 
TABS,ioos:station:wmo:42047:1,2014-04-03T14:30:00Z,27.8966,-93.5973,1012.21,11111222 
TABS,ioos:station:wmo:42047:1,2014-04-03T15:00:00Z,27.8966,-93.5973,1012.54,11111222 
TABS,ioos:station:wmo:42047:1,2014-04-03T15:30:00Z,27.8966,-93.5973,1012.2,11111222 
TABS,ioos:station:wmo:42047:1,2014-04-03T16:00:00Z,27.8966,-93.5973,1011.91,11111222 
TABS,ioos:station:wmo:42047:1,2014-04-03T16:30:00Z,27.8966,-93.5973,1011.6,11111222 
TABS,ioos:station:wmo:42047:1,2014-04-03T17:00:00Z,27.8966,-93.5973,1011.44,11111222 
TABS,ioos:station:wmo:42047:1,2014-04-03T17:30:00Z,27.8966,-93.5973,1010.96,11111222 
TABS,ioos:station:wmo:42047:1,2014-04-03T18:00:00Z,27.8966,-93.5973,1010.69,11111222 
TABS,ioos:station:wmo:42047:1,2014-04-03T18:30:00Z,27.8966,-93.5973,1010.28,11111222 
TABS,ioos:station:wmo:42047:1,2014-04-03T19:00:00Z,27.8966,-93.5973,1010.48,11111222 
TABS,ioos:station:wmo:42047:1,2014-04-03T19:30:00Z,27.8966,-93.5973,1010.49,11111222 
TABS,ioos:station:wmo:42047:1,2014-04-03T20:00:00Z,27.8966,-93.5973,1010.28,11111222 
TABS,ioos:station:wmo:42047:1,2014-04-03T20:30:00Z,27.8966,-93.5973,1010.07,11111222 
TABS,ioos:station:wmo:42047:1,2014-04-03T21:00:00Z,27.8966,-93.5973,1009.8,11111222 
TABS,ioos:station:wmo:42047:1,2014-04-03T21:30:00Z,27.8966,-93.5973,1009.26,11111222 
TABS,ioos:station:wmo:42047:1,2014-04-03T22:00:00Z,27.8966,-93.5973,1009.37,11111222 
TABS,ioos:station:wmo:42047:1,2014-04-03T22:30:00Z,27.8966,-93.5973,1009.84,11111222 
TABS,ioos:station:wmo:42047:1,2014-04-03T23:00:00Z,27.8966,-93.5973,1009.85,11111222 
TABS,ioos:station:wmo:42047:1,2014-04-03T23:30:00Z,27.8966,-93.5973,1010.18,11111222 
TABS,ioos:station:wmo:42047:1,2014-04-04T00:00:00Z,27.8966,-93.5973,1010.04,11111222 
TABS,ioos:station:wmo:42047:1,2014-04-04T00:30:00Z,27.8966,-93.5973,1010.0,11111222 
TABS,ioos:station:wmo:42047:1,2014-04-04T01:00:00Z,27.8966,-93.5973,1009.87,11111222 
TABS,ioos:station:wmo:42047:1,2014-04-04T01:30:00Z,27.8966,-93.5973,1010.29,11111222 
TABS,ioos:station:wmo:42047:1,2014-04-04T02:00:00Z,27.8966,-93.5973,1010.51,11111222 
TABS,ioos:station:wmo:42047:1,2014-04-04T02:30:00Z,27.8966,-93.5973,1011.0,11111222 
TABS,ioos:station:wmo:42047:1,2014-04-04T03:00:00Z,27.8966,-93.5973,1010.94,11111222 
TABS,ioos:station:wmo:42047:1,2014-04-04T03:30:00Z,27.8966,-93.5973,1011.21,11111222 
TABS,ioos:station:wmo:42047:1,2014-04-04T04:00:00Z,27.8966,-93.5973,1010.77,11111222 
TABS,ioos:station:wmo:42047:1,2014-04-04T04:30:00Z,27.8966,-93.5973,1010.79,11111222 
TABS,ioos:station:wmo:42047:1,2014-04-04T05:00:00Z,27.8966,-93.5973,1010.25,11111222 
TABS,ioos:station:wmo:42047:1,2014-04-04T05:30:00Z,27.8966,-93.5973,1010.06,11111222 
TABS,ioos:station:wmo:42047:1,2014-04-04T06:00:00Z,27.8966,-93.5973,1010.06,11111222 
TABS,ioos:station:wmo:42047:1,2014-04-04T06:30:00Z,27.8966,-93.5973,1009.73,11111222 
TABS,ioos:station:wmo:42047:1,2014-04-04T07:00:00Z,27.8966,-93.5973,1009.56,11111222 
TABS,ioos:station:wmo:42047:1,2014-04-04T07:30:00Z,27.8966,-93.5973,1009.98,11111222 
TABS,ioos:station:wmo:42047:1,2014-04-04T08:00:00Z,27.8966,-93.5973,1010.11,11111222 
TABS,ioos:station:wmo:42047:1,2014-04-04T08:30:00Z,27.8966,-93.5973,1010.56,11111222 
TABS,ioos:station:wmo:42047:1,2014-04-04T09:00:00Z,27.8966,-93.5973,1010.42,11111222 
TABS,ioos:station:wmo:42047:1,2014-04-04T09:30:00Z,27.8966,-93.5973,1010.26,11111222 
TABS,ioos:station:wmo:42047:1,2014-04-04T10:00:00Z,27.8966,-93.5973,1010.38,11111222 
TABS,ioos:station:wmo:42047:1,2014-04-04T10:30:00Z,27.8966,-93.5973,1010.63,11111222 
TABS,ioos:station:wmo:42047:1,2014-04-04T11:00:00Z,27.8966,-93.5973,1011.35,11111222 
TABS,ioos:station:wmo:42047:1,2014-04-04T11:30:00Z,27.8966,-93.5973,1012.42,11111222 
TABS,ioos:station:wmo:42047:1,2014-04-04T12:00:00Z,27.8966,-93.5973,1012.81,11111222 
TABS,ioos:station:wmo:42047:1,2014-04-04T12:30:00Z,27.8966,-93.5973,1012.8,11111222 
TABS,ioos:station:wmo:42047:1,2014-04-04T13:00:00Z,27.8966,-93.5973,1013.5,11111222 
TABS,ioos:station:wmo:42047:1,2014-04-04T13:30:00Z,27.8966,-93.5973,1012.98,11111222 
TABS,ioos:station:wmo:42047:1,2014-04-04T14:00:00Z,27.8966,-93.5973,1013.15,11111222 
TABS,ioos:station:wmo:42047:1,2014-04-04T14:30:00Z,27.8966,-93.5973,1013.34,11111222 
TABS,ioos:station:wmo:42047:1,2014-04-04T15:00:00Z,27.8966,-93.5973,1013.63,11111222 
TABS,ioos:station:wmo:42047:1,2014-04-04T15:30:00Z,27.8966,-93.5973,1013.93,11111222 
TABS,ioos:station:wmo:42047:1,2014-04-04T16:00:00Z,27.8966,-93.5973,1014.47,11111222 
TABS,ioos:station:wmo:42047:1,2014-04-04T16:30:00Z,27.8966,-93.5973,1014.4,11111222 
TABS,ioos:station:wmo:42047:1,2014-04-04T17:00:00Z,27.8966,-93.5973,1014.26,11111222 
TABS,ioos:station:wmo:42047:1,2014-04-04T17:30:00Z,27.8966,-93.5973,1014.16,11111222 
TABS,ioos:station:wmo:42047:1,2014-04-04T18:00:00Z,27.8966,-93.5973,1014.06,11111222 
TABS,ioos:station:wmo:42047:1,2014-04-04T18:30:00Z,27.8966,-93.5973,1014.1,11111222 
TABS,ioos:station:wmo:42047:1,2014-04-04T19:00:00Z,27.8966,-93.5973,1013.47,11111222 
TABS,ioos:station:wmo:42047:1,2014-04-04T19:30:00Z,27.8966,-93.5973,1013.64,11111222 
TABS,ioos:station:wmo:42047:1,2014-04-04T20:00:00Z,27.8966,-93.5973,1013.67,11111222 
TABS,ioos:station:wmo:42047:1,2014-04-04T20:30:00Z,27.8966,-93.5973,1013.38,11111222 
TABS,ioos:station:wmo:42047:1,2014-04-04T21:00:00Z,27.8966,-93.5973,1013.04,11111222 
TABS,ioos:station:wmo:42047:1,2014-04-04T21:30:00Z,27.8966,-93.5973,1013.04,11111222 
TABS,ioos:station:wmo:42047:1,2014-04-04T22:00:00Z,27.8966,-93.5973,1013.23,11111222 
TABS,ioos:station:wmo:42047:1,2014-04-04T22:30:00Z,27.8966,-93.5973,1013.14,11111222 
TABS,ioos:station:wmo:42047:1,2014-04-04T23:00:00Z,27.8966,-93.5973,1013.17,11111222 
TABS,ioos:station:wmo:42047:1,2014-04-04T23:30:00Z,27.8966,-93.5973,1013.15,11111222 
TABS,ioos:station:wmo:42047:1,2014-04-05T00:00:00Z,27.8966,-93.5973,1013.18,11111222 
TABS,ioos:station:wmo:42047:1,2014-04-05T00:30:00Z,27.8966,-93.5973,1013.66,11111222 
TABS,ioos:station:wmo:42047:1,2014-04-05T01:00:00Z,27.8966,-93.5973,1013.65,11111222 
TABS,ioos:station:wmo:42047:1,2014-04-05T01:30:00Z,27.8966,-93.5973,1014.07,11111222 
TABS,ioos:station:wmo:42047:1,2014-04-05T02:00:00Z,27.8966,-93.5973,1014.25,11111222 
TABS,ioos:station:wmo:42047:1,2014-04-05T02:30:00Z,27.8966,-93.5973,1014.55,11111222 
TABS,ioos:station:wmo:42047:1,2014-04-05T03:00:00Z,27.8966,-93.5973,1015.1,11111222 
TABS,ioos:station:wmo:42047:1,2014-04-05T03:30:00Z,27.8966,-93.5973,1014.83,11111222 
TABS,ioos:station:wmo:42047:1,2014-04-05T04:00:00Z,27.8966,-93.5973,1015.07,11111222 
TABS,ioos:station:wmo:42047:1,2014-04-05T04:30:00Z,27.8966,-93.5973,1014.79,11111222 
TABS,ioos:station:wmo:42047:1,2014-04-05T05:00:00Z,27.8966,-93.5973,1014.62,11111222 
TABS,ioos:station:wmo:42047:1,2014-04-05T05:30:00Z,27.8966,-93.5973,1014.53,11111222 
TABS,ioos:station:wmo:42047:1,2014-04-05T06:00:00Z,27.8966,-93.5973,1014.64,11111222 
TABS,ioos:station:wmo:42047:1,2014-04-05T06:30:00Z,27.8966,-93.5973,1014.33,11111222 
TABS,ioos:station:wmo:42047:1,2014-04-05T07:00:00Z,27.8966,-93.5973,1014.33,11111222 
TABS,ioos:station:wmo:42047:1,2014-04-05T07:30:00Z,27.8966,-93.5973,1014.22,11111222 
TABS,ioos:station:wmo:42047:1,2014-04-05T08:00:00Z,27.8966,-93.5973,1013.84,11111222 
TABS,ioos:station:wmo:42047:1,2014-04-05T08:30:00Z,27.8966,-93.5973,1013.52,11111222 
TABS,ioos:station:wmo:42047:1,2014-04-05T09:00:00Z,27.8966,-93.5973,1013.35,11111222 
TABS,ioos:station:wmo:42047:1,2014-04-05T09:30:00Z,27.8966,-93.5973,1013.29,11111222 
TABS,ioos:station:wmo:42047:1,2014-04-05T10:00:00Z,27.8966,-93.5973,1012.81,11111222 
TABS,ioos:station:wmo:42047:1,2014-04-05T10:30:00Z,27.8966,-93.5973,1012.5,11111222 
TABS,ioos:station:wmo:42047:1,2014-04-05T11:00:00Z,27.8966,-93.5973,1012.93,11111222 
TABS,ioos:station:wmo:42047:1,2014-04-05T11:30:00Z,27.8966,-93.5973,1013.41,11111222 
TABS,ioos:station:wmo:42047:1,2014-04-05T12:00:00Z,27.8966,-93.5973,1013.87,11111222 
TABS,ioos:station:wmo:42047:1,2014-04-05T12:30:00Z,27.8966,-93.5973,1014.03,11111222 
TABS,ioos:station:wmo:42047:1,2014-04-05T13:00:00Z,27.8966,-93.5973,1014.53,11111222 
TABS,ioos:station:wmo:42047:1,2014-04-05T13:30:00Z,27.8966,-93.5973,1014.37,11111222 
TABS,ioos:station:wmo:42047:1,2014-04-05T14:00:00Z,27.8966,-93.5973,1014.46,11111222 
TABS,ioos:station:wmo:42047:1,2014-04-05T14:30:00Z,27.8966,-93.5973,1014.72,11111222 
TABS,ioos:station:wmo:42047:1,2014-04-05T15:00:00Z,27.8966,-93.5973,1014.53,11111222 
TABS,ioos:station:wmo:42047:1,2014-04-05T15:30:00Z,27.8966,-93.5973,1014.74,11111222 
TABS,ioos:station:wmo:42047:1,2014-04-05T16:00:00Z,27.8966,-93.5973,1014.84,11111222 
TABS,ioos:station:wmo:42047:1,2014-04-05T16:30:00Z,27.8966,-93.5973,1014.53,11111222 
TABS,ioos:station:wmo:42047:1,2014-04-05T17:00:00Z,27.8966,-93.5973,1014.15,11111222 
TABS,ioos:station:wmo:42047:1,2014-04-05T17:30:00Z,27.8966,-93.5973,1015.01,11111222 
TABS,ioos:station:wmo:42047:1,2014-04-05T18:00:00Z,27.8966,-93.5973,1014.01,11111222 
TABS,ioos:station:wmo:42047:1,2014-04-05T18:30:00Z,27.8966,-93.5973,1013.48,11111222 
TABS,ioos:station:wmo:42047:1,2014-04-05T19:00:00Z,27.8966,-93.5973,1013.04,11111222 
TABS,ioos:station:wmo:42047:1,2014-04-05T19:30:00Z,27.8966,-93.5973,1012.4,11111222 
TABS,ioos:station:wmo:42047:1,2014-04-05T20:00:00Z,27.8966,-93.5973,1012.21,11111222 
TABS,ioos:station:wmo:42047:1,2014-04-05T20:30:00Z,27.8966,-93.5973,1011.86,11111222 
TABS,ioos:station:wmo:42047:1,2014-04-05T21:00:00Z,27.8966,-93.5973,1011.62,11111222 
TABS,ioos:station:wmo:42047:1,2014-04-05T21:30:00Z,27.8966,-93.5973,1011.66,11111222 
TABS,ioos:station:wmo:42047:1,2014-04-05T22:00:00Z,27.8966,-93.5973,1011.46,11111222 
TABS,ioos:station:wmo:42047:1,2014-04-05T22:30:00Z,27.8966,-93.5973,1011.35,11111222 
TABS,ioos:station:wmo:42047:1,2014-04-05T23:00:00Z,27.8966,-93.5973,1011.28,11111222 
TABS,ioos:station:wmo:42047:1,2014-04-05T23:30:00Z,27.8966,-93.5973,1010.97,11111222 
TABS,ioos:station:wmo:42047:1,2014-04-06T00:00:00Z,27.8966,-93.5973,1011.06,11111222 
TABS,ioos:station:wmo:42047:1,2014-04-06T00:30:00Z,27.8966,-93.5973,1010.93,11111222 
TABS,ioos:station:wmo:42047:1,2014-04-06T01:00:00Z,27.8966,-93.5973,1010.88,11111222 
TABS,ioos:station:wmo:42047:1,2014-04-06T01:30:00Z,27.8966,-93.5973,1011.27,11111222 
TABS,ioos:station:wmo:42047:1,2014-04-06T02:00:00Z,27.8966,-93.5973,1011.39,11111222 
TABS,ioos:station:wmo:42047:1,2014-04-06T02:30:00Z,27.8966,-93.5973,1011.17,11111222 
TABS,ioos:station:wmo:42047:1,2014-04-06T03:00:00Z,27.8966,-93.5973,1011.2,11111222 
TABS,ioos:station:wmo:42047:1,2014-04-06T03:30:00Z,27.8966,-93.5973,1011.34,11111222 
TABS,ioos:station:wmo:42047:1,2014-04-06T04:00:00Z,27.8966,-93.5973,1010.85,11111222 
TABS,ioos:station:wmo:42047:1,2014-04-06T04:30:00Z,27.8966,-93.5973,1010.21,11111222 
TABS,ioos:station:wmo:42047:1,2014-04-06T05:00:00Z,27.8966,-93.5973,1009.66,11111222 
TABS,ioos:station:wmo:42047:1,2014-04-06T05:30:00Z,27.8966,-93.5973,1010.31,11111222 
TABS,ioos:station:wmo:42047:1,2014-04-06T06:00:00Z,27.8966,-93.5973,1010.38,11111222 
TABS,ioos:station:wmo:42047:1,2014-04-06T06:30:00Z,27.8966,-93.5973,1010.02,11111222 
TABS,ioos:station:wmo:42047:1,2014-04-06T07:00:00Z,27.8966,-93.5973,1010.12,11111222 
TABS,ioos:station:wmo:42047:1,2014-04-06T07:30:00Z,27.8966,-93.5973,1009.7,11111222 
TABS,ioos:station:wmo:42047:1,2014-04-06T08:00:00Z,27.8966,-93.5973,1009.25,11111222 
TABS,ioos:station:wmo:42047:1,2014-04-06T08:30:00Z,27.8966,-93.5973,1009.39,11111222 
TABS,ioos:station:wmo:42047:1,2014-04-06T09:00:00Z,27.8966,-93.5973,1009.37,11111222 
TABS,ioos:station:wmo:42047:1,2014-04-06T09:30:00Z,27.8966,-93.5973,1009.69,11111222 
TABS,ioos:station:wmo:42047:1,2014-04-06T10:00:00Z,27.8966,-93.5973,1009.36,11111222 
TABS,ioos:station:wmo:42047:1,2014-04-06T10:30:00Z,27.8966,-93.5973,1008.72,11111222 
TABS,ioos:station:wmo:42047:1,2014-04-06T11:00:00Z,27.8966,-93.5973,1008.68,11111222 
TABS,ioos:station:wmo:42047:1,2014-04-06T11:30:00Z,27.8966,-93.5973,1009.04,11111222 
TABS,ioos:station:wmo:42047:1,2014-04-06T12:00:00Z,27.8966,-93.5973,1010.08,11111222 
TABS,ioos:station:wmo:42047:1,2014-04-06T12:30:00Z,27.8966,-93.5973,1009.99,11111222 
TABS,ioos:station:wmo:42047:1,2014-04-06T13:00:00Z,27.8966,-93.5973,1010.15,11111222 
TABS,ioos:station:wmo:42047:1,2014-04-06T13:30:00Z,27.8966,-93.5973,1009.93,11111222 
TABS,ioos:station:wmo:42047:1,2014-04-06T14:00:00Z,27.8966,-93.5973,1009.84,11111222 
TABS,ioos:station:wmo:42047:1,2014-04-06T14:30:00Z,27.8966,-93.5973,1009.64,11111222 
TABS,ioos:station:wmo:42047:1,2014-04-06T15:00:00Z,27.8966,-93.5973,1009.42,11111222 
TABS,ioos:station:wmo:42047:1,2014-04-06T15:30:00Z,27.8966,-93.5973,1008.94,11111222 
TABS,ioos:station:wmo:42047:1,2014-04-06T16:00:00Z,27.8966,-93.5973,1008.55,11111222 
TABS,ioos:station:wmo:42047:1,2014-04-06T16:30:00Z,27.8966,-93.5973,1008.09,11111222 
TABS,ioos:station:wmo:42047:1,2014-04-06T17:00:00Z,27.8966,-93.5973,1007.55,11111222 
TABS,ioos:station:wmo:42047:1,2014-04-06T17:30:00Z,27.8966,-93.5973,1006.82,11111222 
TABS,ioos:station:wmo:42047:1,2014-04-06T18:00:00Z,27.8966,-93.5973,1006.06,11111222 
TABS,ioos:station:wmo:42047:1,2014-04-06T18:30:00Z,27.8966,-93.5973,1005.74,11111222 